Погода в Нижневартовске

Россия / Ханты-Мансийский автономный округ - Югра     60°56′22″N   76°34′10″E
темп.,
°C
ветер,
м/с
пор.,
м/с
влажн.,
%
обл.,
%
осадки,
мм/ч
давл.,
гПа
погр.,
м
22 апреля, чт
чт2223:00−10ююз11905 0.0 103910
02:00−10ююз229362 0.0 104017
05:00−10юз229313 0.0 104225
08:00−3ююз35805 0.0 1043203
11:000ююз3576100 0.0 1043635
14:00+1ююв2397100 0.0 1043175
17:00+1ю348340 0.0 104368
20:00−2ю478144 0.0 104377
23 апреля, пт
пт2323:00−3ю49866 0.0 1043135
02:00−4ю410895 0.0 1043146
05:00−4ю410895 0.0 1042162
08:000ю512803 0.0 1042398
11:00+3ю610770 0.0 1041383
14:00+6ю610650 0.0 1040479
17:00+5ю59650 0.0 1039212
20:00+2ю510785 0.0 1039147
24 апреля, сб
сб2423:00+1ю5118492 0.0 1038207
02:00+1ю5118399 0.0 1036250
05:000ю5108198 0.0 1035237
08:00+2ююз51072100 0.0 1034340
11:00+4ююз4768100 0.0 1032429
14:00+6ю4764100 0.0 1031475
17:00+6ю347092 0.0 103051
20:00+3ю458165 0.0 103050
25 апреля, вс
вс2523:00+2юз3387100 0.0 103037
02:00+2юз338680 0.0 102942
05:00+2ю338176 0.0 102936
08:00+4ююв237188 0.0 1029178
11:00+8ю345994 0.0 1028681
14:00+10ююз235064 0.0 10271392
17:00+10ююв234995 0.0 10271052
20:00+7юв35645 0.0 102765
26 апреля, пн
пн2623:00+5юв357485 0.0 102672
02:00+3ююв34775 0.0 102544
05:00+3юв4780100 0.0 1025128
08:00+6юв61068100 0.0 1023423
11:00+9юв71050100 0.0 10201066
14:00+11юв91142100 0.0 10181637
17:00+10ююв81250100 0.0 10161530
20:00+7ююв81273100 0.1 10141052